Vorticity
nan nan nan nan nan nan nan nan nan nan nan nan nan nan nan nan nan nan nan nan nan nan nan nan nan nan nan nan nan nan nan nan nan nan nan nan nan nan nan nan nan nan nan
nan 6 6 5 5 5 5 5 5 4 5 4 4 5 5 4 5 5 5 6 6 6 6 6 5 5 4 4 5 5 5 4 4 5 3 4 2 4 4 3 7 5 nan
nan 7 7 5 5 6 6 5 5 4 5 6 6 5 5 4 5 4 5 6 6 6 6 6 5 4 4 4 4 4 4 4 4 2 6 5 5 5 7 8 9 6 nan
nan 5 8 5 6 7 6 5 6 5 4 5 6 6 5 4 5 4 5 6 7 6 6 6 4 4 4 4 5 5 4 4 4 7 9 5 4 5 5 8 17 14 nan
nan 4 7 7 6 6 6 7 7 4 4 6 6 7 6 6 5 4 5 6 7 7 6 5 4 4 4 6 8 8 6 4 3 11 4 5 5 2 3 7 10 7 nan
nan 7 4 7 6 6 6 7 5 4 5 5 6 6 6 7 7 4 5 6 6 7 7 5 4 4 5 7 8 8 8 5 8 7 5 3 4 4 5 6 4 4 nan
nan 7 5 6 7 5 5 5 5 6 7 5 4 6 6 8 6 5 5 5 5 6 6 5 4 4 5 7 7 6 4 3 10 6 5 4 5 6 6 5 6 4 nan
nan 5 5 4 5 4 5 5 6 7 6 7 8 5 5 9 4 4 4 5 5 5 5 5 4 4 4 5 6 5 3 6 5 4 5 5 4 5 5 5 6 7 nan
nan 5 5 4 1 3 5 5 6 6 4 12 14 7 8 7 4 4 4 5 5 5 5 5 5 4 5 5 5 6 4 4 5 5 5 6 3 5 5 5 5 6 nan
nan 6 4 5 4 3 3 5 6 6 4 6 8 8 7 4 3 2 7 6 6 5 5 4 5 6 5 5 5 6 6 6 5 4 5 7 4 5 4 4 5 5 nan
nan 6 5 5 6 5 4 5 5 6 4 4 1 4 5 4 5 -2 3 7 6 6 5 5 5 6 3 4 5 5 4 7 6 5 7 6 4 4 4 4 4 5 nan
nan 6 6 6 6 4 6 5 3 5 5 5 5 3 4 5 4 5 4 4 4 7 6 6 6 5 3 4 8 4 5 5 6 6 8 5 5 5 5 4 3 4 nan
nan 6 6 6 6 5 4 3 5 5 6 8 8 6 6 7 7 6 5 6 6 6 6 7 5 3 5 5 5 5 7 7 7 7 8 6 5 5 6 6 4 4 nan
nan 5 6 6 6 5 4 6 6 6 6 7 7 6 6 7 6 7 7 7 7 7 7 6 6 8 7 6 5 6 7 6 6 7 8 10 6 6 5 6 6 4 nan
nan 6 7 6 5 6 5 5 6 6 7 7 7 6 6 6 7 7 7 7 7 8 8 7 7 7 8 7 7 7 6 7 6 6 10 9 7 7 7 5 6 6 nan
nan 8 8 7 7 5 5 5 5 7 7 7 7 8 6 5 7 7 7 8 8 7 6 7 7 7 7 8 7 8 8 7 8 6 6 9 11 7 8 6 5 5 nan
nan 8 7 8 8 7 6 6 6 7 7 7 8 8 7 6 6 6 7 8 8 8 7 7 7 7 7 7 7 8 8 8 8 7 7 7 11 12 9 8 7 6 nan
nan 8 7 8 9 7 6 6 6 6 7 7 7 8 8 6 7 6 7 7 7 7 8 7 7 7 7 7 8 9 8 8 7 8 7 7 6 10 14 12 10 9 nan
nan 9 8 8 8 7 6 6 7 7 7 7 7 7 8 8 7 6 6 7 7 7 7 7 7 7 7 7 7 7 8 8 8 9 8 8 8 7 8 13 11 10 nan
nan 10 9 8 8 8 7 8 7 8 8 8 8 7 7 8 8 6 7 7 8 7 7 7 7 7 7 7 9 8 9 9 9 8 9 10 10 10 9 8 10 15 nan
nan 9 10 9 9 8 8 8 8 9 8 8 9 9 9 8 8 7 7 9 8 8 7 7 8 9 9 8 9 12 11 9 8 10 10 9 10 11 10 11 9 9 nan
nan 10 10 11 11 9 7 8 9 10 9 9 11 12 12 13 12 11 9 10 9 10 10 10 9 10 10 10 7 8 10 11 13 10 9 8 8 10 11 10 9 9 nan
nan 10 10 11 11 11 10 9 8 8 9 11 10 9 9 12 12 12 11 11 11 10 9 10 11 10 9 10 10 5 7 9 11 10 8 8 10 7 8 8 10 11 nan
nan 10 11 10 9 10 12 10 8 7 8 8 9 8 7 8 10 10 11 10 11 10 9 8 9 9 8 6 9 11 7 9 7 7 9 9 9 8 6 7 9 10 nan
nan 9 9 8 8 9 10 10 11 10 9 8 10 8 7 6 6 8 9 10 11 10 11 10 9 9 9 9 6 9 11 10 9 9 7 7 6 7 7 10 10 9 nan
nan nan nan nan nan nan nan nan nan nan nan nan nan nan nan nan nan nan nan nan nan nan nan nan nan nan nan nan nan nan nan nan nan nan nan nan nan nan nan nan nan nan nan
CAPE
943 1483 2164 2195 1628 1599 1391 1286 942 807 631 407 318 185 128 253 130 245 82 19 132 45 53 68 44 5 3 1 0 0 0 1 1 0 0 10 12 7 0 0 19 6 9
681 1469 2152 2353 2196 1983 1744 1300 1206 1131 898 430 191 103 67 134 9 1 1 2 7 11 10 8 9 7 4 1 0 0 0 0 0 0 0 0 0 0 0 0 0 0 0
800 1318 1805 2232 2340 2268 1900 1318 1180 1135 760 269 126 43 51 271 73 35 4 0 3 12 12 8 7 5 1 0 0 0 0 0 0 0 0 5 3 4 20 6 3 4 0
1118 1560 1510 2323 2414 2164 1572 1280 1200 778 354 168 72 0 28 262 175 87 4 0 2 5 7 8 6 2 1 0 0 0 0 0 0 1 25 29 15 105 151 196 301 135 2
1343 1198 1766 2407 2352 2108 1582 1453 1511 552 166 8 0 0 0 232 436 133 0 0 1 6 2 5 4 0 0 0 0 0 0 0 0 63 89 135 124 63 4 15 225 113 12
1223 1045 1736 2235 2304 2015 1762 1278 700 452 162 8 98 1 0 246 567 101 0 0 0 1 0 1 0 0 0 1 53 0 0 0 51 74 103 16 15 1 2 0 0 92 203
991 1305 1594 2250 2200 1681 1400 1038 547 240 87 231 291 94 97 283 551 67 0 0 0 0 0 0 1 0 0 0 50 59 43 0 36 5 4 6 3 1 2 0 0 0 0
1104 1228 1428 1737 1651 1382 1142 772 350 78 82 491 721 311 249 793 363 63 9 0 0 0 0 0 0 0 0 0 16 40 0 0 0 2 1 2 0 1 0 0 0 0 0
1280 1102 1598 1420 1085 977 831 627 424 239 385 532 1126 860 852 741 357 96 48 35 11 28 40 30 14 12 4 0 0 3 13 0 16 9 0 2 0 1 0 0 0 0 0
1199 1038 1640 1343 1001 698 311 354 217 116 254 427 288 152 162 115 125 145 79 66 35 26 47 47 32 20 9 0 0 0 0 0 18 13 9 19 34 6 0 0 0 0 0
1318 1260 1227 950 950 812 523 204 51 26 51 149 48 31 36 90 98 65 11 23 36 25 23 35 39 11 0 0 0 0 0 8 12 12 3 0 48 27 5 0 0 0 0
1325 1353 1327 1069 1020 839 559 355 336 38 1 1 29 59 49 76 79 68 26 5 24 32 25 32 46 18 0 0 0 0 0 0 0 2 0 1 28 98 44 4 0 0 0
1013 1068 1295 1195 1141 953 694 641 502 300 108 44 30 33 0 0 15 21 30 44 57 6 48 22 22 7 0 0 0 0 0 0 0 0 0 0 23 97 85 61 7 0 0
748 672 1426 1251 1121 978 871 757 589 419 277 138 61 39 23 0 0 0 0 0 0 0 11 16 0 0 0 0 0 0 0 0 0 0 0 0 0 53 135 87 72 8 0
1155 1222 1500 1332 1227 1016 1014 872 769 583 373 259 142 47 20 0 0 0 0 0 0 0 0 0 0 0 0 0 0 0 0 0 0 0 0 0 0 0 114 125 83 87 29
1148 1345 1334 1276 1066 1073 1082 937 844 672 483 387 262 150 41 19 2 0 0 0 0 0 0 0 0 0 0 0 0 0 0 0 0 0 0 0 0 0 22 120 127 71 58
1331 1330 1316 1045 904 899 1078 1123 904 746 533 511 435 277 136 58 50 0 0 0 0 0 0 0 0 0 0 0 0 0 0 0 0 5 0 0 0 0 0 2 96 139 88
1125 1348 1119 778 794 910 965 931 822 699 645 646 614 535 358 188 75 53 36 37 10 0 0 0 0 0 2 7 28 44 28 22 34 31 27 1 0 0 0 0 2 108 171
949 1074 916 899 829 786 760 731 737 699 642 651 643 618 551 440 211 94 54 56 55 34 11 2 0 16 36 54 47 31 39 56 61 36 46 47 30 0 0 0 0 21 199
180 629 753 868 921 1000 943 824 730 721 714 669 675 615 538 502 303 163 117 93 74 65 78 117 64 117 43 49 25 3 49 53 44 50 61 32 0 0 0 0 0 0 0
0 0 201 690 863 955 1005 1005 976 944 804 676 536 428 286 202 100 49 109 183 199 167 178 174 104 42 54 41 35 63 101 0 0 0 0 0 0 0 0 0 0 0 0
0 0 0 4 449 455 803 836 808 832 806 758 565 446 335 333 307 328 331 343 330 255 228 175 63 48 26 82 53 58 25 1 7 1 0 0 0 0 0 0 0 0 0
0 0 0 0 0 0 0 0 0 0 0 0 64 102 0 0 0 0 1 3 5 7 3 25 22 7 7 18 0 78 80 16 17 16 0 0 0 0 0 0 0 0 0
0 0 0 0 0 0 0 0 0 0 0 0 0 0 0 0 0 0 0 0 0 1 6 9 12 20 11 20 2 1 10 25 41 47 24 8 0 1 0 0 0 0 0
0 0 0 0 0 0 0 0 0 0 0 0 0 0 0 0 0 0 0 0 0 0 0 0 2 5 14 18 25 8 14 10 5 9 11 32 31 8 1 3 0 0 0
0 0 0 0 0 0 0 0 0 0 0 0 0 0 0 0 0 0 0 0 0 0 0 1 1 1 7 8 15 15 34 20 23 7 4 3 17 13 3 2 0 0 0